This is the latest recevied weather packets stored in our database for station/object KG5VSR. If no packets are shown the sender has not sent any weather packets the latest 10 day(s).
| Time | Temp. | Humidity | Pressure | Rain* | Wind** | Luminosity | Snow |
|---|---|---|---|---|---|---|---|
| 1777518320 | 17.78° C | 85% | 1015 hPa | 0 mm | - | 0 W/m² | - |
| 1777516519 | 17.22° C | 85% | 1014.7 hPa | 0 mm | - | 0 W/m² | - |
| 1777514715 | 17.22° C | 87% | 1014.4 hPa | 0 mm | - | 0 W/m² | - |
| 1777512914 | 16.67° C | 89% | 1014 hPa | 0 mm | - | 0 W/m² | - |
| 1777511113 | 16.67° C | 89% | 1013.9 hPa | 0 mm | - | 0 W/m² | - |
| 1777509309 | 17.22° C | 86% | 1013.9 hPa | 0 mm | - | 0 W/m² | - |
| 1777507508 | 17.22° C | 87% | 1013.1 hPa | 0 mm | - | 6 W/m² | - |
| 1777505705 | 17.78° C | 85% | 1013 hPa | 0 mm | - | 44 W/m² | - |
| 1777503901 | 17.22° C | 85% | 1013.4 hPa | 0 mm | - | 53 W/m² | - |
| 1777502099 | 17.78° C | 86% | 1013.8 hPa | 0 mm | - | 60 W/m² | - |
| 1777500300 | 18.33° C | 84% | 1012.9 hPa | 0 mm | - | 120 W/m² | - |
| 1777498498 | 18.33° C | 84% | 1012.7 hPa | 0 mm | - | 179 W/m² | - |
| 1777496695 | 18.89° C | 83% | 1013.1 hPa | 0 mm | - | 147 W/m² | - |
| 1777494892 | 18.33° C | 90% | 1013.4 hPa | 0 mm | - | 344 W/m² | - |
| 1777493091 | 17.22° C | 99% | 1014.5 hPa | 0 mm | - | 571 W/m² | - |
| 1777491289 | 15.56° C | 99% | 1016.6 hPa | 0 mm | - | 19 W/m² | - |
| 1777489488 | 16.67° C | 98% | 1013.8 hPa | 4.83 mm | - | 180 W/m² | - |
| 1777487683 | 16.11° C | 91% | 1014.9 hPa | 6.1 mm | - | 81 W/m² | - |
| 1777485883 | 16.67° C | 88% | 1015.4 hPa | 0 mm | - | 76 W/m² | - |
| 1777484078 | 16.11° C | 89% | 1016.8 hPa | 0 mm | - | 37 W/m² | - |
| 1777482274 | 16.11° C | 88% | 1015.6 hPa | 0 mm | - | 207 W/m² | - |
| 1777480473 | 16.11° C | 88% | 1016.5 hPa | 0 mm | - | 93 W/m² | - |
| 1777478671 | 15.56° C | 90% | 1015.8 hPa | 0 mm | - | 109 W/m² | - |
| 1777476867 | 16.11° C | 86% | 1016.4 hPa | 0 mm | - | 67 W/m² | - |
| 1777475068 | 16.11° C | 86% | 1016 hPa | 0 mm | - | 49 W/m² | - |
* Rain latest hour (hover to see other rain measurements)
** Current wind speed in m/s (hover to see current wind gust speed)